Station AAMC1 - 9414750 - Alameda, CA Image indicating link to RSS feed of recent meteorological observations for station AAMC1


Conditions at AAMC1 as of
(1:48 am PDT)
0848 GMT on 06/17/2024:
     

Click on the graph icon in the table below to see a time series plot of the last five days of that observation.

5-day plot - Wind Direction Wind Direction (WDIR): W ( 260 deg true )
5-day plot - Wind Speed Wind Speed (WSPD): 8.9 kts
5-day plot - Wind Gust Wind Gust (GST): 11.1 kts
5-day plot - Atmospheric Pressure Atmospheric Pressure (PRES):29.90 in
5-day plot - Air Temperature Air Temperature (ATMP): 56.3 °F
5-day plot - Water Temperature Water Temperature (WTMP): 68.4 °F
5-day plot - Wind Speed at 10 Meters Wind Speed at 10 meters (WSPD10M): 9.7 kts
5-day plot - Wind Speed at 20 Meters Wind Speed at 20 meters (WSPD20M): 9.7 kts
5-day plot -  Wind Speed, Wind Gust and Atmospheric Pressure Combined plot of Wind Speed, Gust, and Air Pressure
NOS Water Level Observation Network Water Level
Previous observations
TIME
(PDT)
5-day plot - Wind Direction
WDIR
 
5-day plot - Wind Speed
WSPD
kts
5-day plot - Wind Gust
GST
kts
5-day plot - Wave Height
WVHT
ft
5-day plot - Dominant Wave Period
DPD
sec
5-day plot - Average Wave Period
APD
sec
5-day plot - Mean Wave Direction
MWD
 
5-day plot - Atmospheric Pressure
PRES
in
5-day plot - Pressure Tendency
PTDY
in
5-day plot - Air Temperature
ATMP
°F
5-day plot - Water Temperature
WTMP
°F
5-day plot - Dew Point
DEWP
°F
5-day plot - Salinity
SAL
psu
5-day plot - Visibility
VIS
nmi
5-day plot - Tide (above MLLW)
TIDE
ft
2024-06-17 01:42 am W 8.9 12.0----29.90- 56.3 68.4----
2024-06-17 01:36 am W 8.9 13.0----29.90- 56.1 68.4----
2024-06-17 01:30 am W 7.0 12.0----29.90- 56.7 68.4----
2024-06-17 01:24 am W 8.0 15.0----29.89- 56.7 68.5----
2024-06-17 01:18 am W 11.1 15.0----29.90- 56.5 68.5----
2024-06-17 01:12 am W 9.9 14.0----29.90- 57.0 68.5----
2024-06-17 01:06 am W 9.9 13.0----29.89- 57.4 68.7----
2024-06-17 01:00 am W 9.9 13.0----29.89+0.01 57.2 68.7----
2024-06-17 12:54 am W 11.1 13.0----29.89- 57.0 68.7----
2024-06-17 12:48 amWSW 11.1 15.0----29.89- 57.4 68.7----
2024-06-17 12:42 am W 9.9 14.0----29.90- 57.7 68.5----
2024-06-17 12:36 am W 11.1 13.0----29.90- 57.6 68.7----
2024-06-17 12:30 am W 9.9 13.0----29.90- 58.3 68.7----
2024-06-17 12:24 am W 8.9 12.0----29.90- 58.1 68.7----
2024-06-17 12:18 am W 8.0 11.1----29.89- 58.5 68.7----
2024-06-17 12:12 am W 8.0 11.1----29.89- 58.5 68.7----
2024-06-17 12:06 am W 8.0 11.1----29.90- 58.5 68.7----
2024-06-17 12:00 am W 7.0 8.9----29.90+0.02 58.3 68.5----
2024-06-16 11:54 pm W 7.0 9.9----29.90- 58.3 68.7----
2024-06-16 11:48 pm W 7.0 11.1----29.90- 59.0 68.7----
2024-06-16 11:42 pm W 7.0 8.9----29.90- 59.5 68.7----
2024-06-16 11:36 pm W 6.0 8.0----29.90- 59.4 68.5----
2024-06-16 11:30 pm W 7.0 8.9----29.90- 59.5 68.5----
2024-06-16 11:24 pm W 5.1 7.0----29.90- 59.9 68.5----
2024-06-16 11:18 pm W 6.0 8.9----29.90- 59.7 68.5----
2024-06-16 11:12 pm W 7.0 8.0----29.90- 59.5 68.5----
2024-06-16 11:06 pm W 6.0 9.9----29.90- 59.5 68.4----
2024-06-16 11:00 pm W 8.0 11.1----29.90+0.03 59.4 68.5----
2024-06-16 10:54 pm W 8.9 11.1----29.90- 59.4 68.5----
2024-06-16 10:48 pm W 8.9 11.1----29.90- 59.5 68.5----
2024-06-16 10:42 pm W 8.0 11.1----29.90- 59.7 68.5----
2024-06-16 10:36 pm W 8.9 12.0----29.90- 59.7 68.5----
2024-06-16 10:30 pm W 8.9 12.0----29.90- 59.5 68.5----
2024-06-16 10:24 pm W 9.9 13.0----29.89- 60.3 68.4----
2024-06-16 10:18 pm W 8.9 12.0------ 60.1 68.4----
2024-06-16 10:12 pm W 9.9 12.0------ 60.1 68.2----
2024-06-16 10:06 pm W 9.9 15.0------ 60.8 68.0----
2024-06-16 10:00 pm W 9.9 12.0----29.88+0.01- 67.8----
2024-06-16 09:54 pm W 8.9 12.0----29.88-- 67.8----
2024-06-16 09:48 pm W 8.0 11.1----29.88-- 68.5----
2024-06-16 09:42 pm W 8.9 11.1----29.88-- 68.9----
2024-06-16 09:36 pm W 4.1 6.0----29.88-- 68.9----
2024-06-16 09:30 pm W 2.9 5.1----29.88-- 68.9----
2024-06-16 09:24 pm W 4.1 7.0----29.88-- 68.9----
2024-06-16 09:18 pm W 5.1 9.9----29.88- 62.6 68.9----
2024-06-16 09:12 pm W 7.0 8.9----29.88- 61.7 68.9----
2024-06-16 09:06 pm W 7.0 9.9----29.88- 61.2 68.9----
2024-06-16 09:00 pm-------29.88+0.01 61.3 68.9----
2024-06-16 08:54 pm-------29.88- 61.7 68.9----
2024-06-16 08:48 pm W 8.0 9.9----29.88-- 68.9----
2024-06-16 08:42 pm W 8.0 9.9----29.88-- 68.9----
2024-06-16 08:36 pm W 7.0 11.1----29.88-- 68.9----
2024-06-16 08:30 pm W 8.9 11.1----29.88- 61.9 68.9----
2024-06-16 08:24 pm W 8.0 11.1----29.87- 62.1 68.9----
2024-06-16 08:18 pm W 8.0 11.1----29.87- 61.5 69.1----
2024-06-16 08:12 pm W 8.0 11.1----29.88- 61.9 69.1----
2024-06-16 08:06 pm W 8.9 14.0----29.88- 61.7 69.1----
2024-06-16 08:00 pm W 9.9 12.0----29.87+0.00 62.1 69.1----
2024-06-16 07:54 pm W 9.9 13.0----29.87- 63.0 69.1----
2024-06-16 07:48 pm W 11.1 15.0----29.87- 62.8 69.1----
2024-06-16 07:42 pm W 11.1 14.0----29.88- 62.6 69.3----
2024-06-16 07:36 pm W 11.1 14.0----29.88- 62.8 69.4----
2024-06-16 07:30 pm W 12.0 15.0----29.88- 62.6 69.4----
2024-06-16 07:24 pm W 11.1 17.1----29.87- 62.6 69.4----
2024-06-16 07:18 pm W 14.0 17.1----29.88- 62.4 69.4----
2024-06-16 07:12 pm W 13.0 17.1----29.87- 62.4 69.4----
2024-06-16 07:06 pm W 13.0 17.1----29.88- 62.4 69.4----
2024-06-16 07:00 pm W 12.0 15.9----29.88+0.00 62.4 69.4----
2024-06-16 06:54 pm W 11.1 15.0----29.87- 62.4 69.6----
2024-06-16 06:48 pm W 12.0 15.0----29.88- 62.6 69.6----
2024-06-16 06:42 pm W 11.1 14.0----29.87- 62.6 69.6----
2024-06-16 06:36 pm W 12.0 15.9----29.87- 62.1 69.8----
2024-06-16 06:30 pm W 12.0 17.1------ 61.9 69.8----
2024-06-16 06:24 pm W 14.0 18.1------ 62.1 69.6----
2024-06-16 06:18 pm W 14.0 19.0------ 62.6 69.6----
2024-06-16 06:12 pm W 14.0 17.1------ 63.1 69.8----
2024-06-16 06:06 pm W 14.0 15.9------ 63.9 69.8----
2024-06-16 06:00 pm W 12.0 15.0----29.86-0.02- 69.8----
2024-06-16 05:54 pm W 12.0 15.0----29.86-- 69.8----
2024-06-16 05:48 pm W 13.0 15.9----29.86-- 69.8----
2024-06-16 05:42 pm W 12.0 18.1----29.86-- 69.8----
2024-06-16 05:36 pm W 12.0 15.9----29.86-- 69.6----
2024-06-16 05:30 pm W 14.0 18.1----29.87-- 69.8----
2024-06-16 05:24 pm W 15.0 19.0----29.87-- 69.8----
2024-06-16 05:18 pm W 12.0 17.1----29.86- 64.4 69.6----
2024-06-16 05:12 pm W 14.0 19.0----29.87- 64.2 69.6----
2024-06-16 05:06 pm W 14.0 18.1----29.87- 64.9 69.8----
2024-06-16 05:00 pm W 13.0 19.0----29.87-0.03 64.9 69.6----
2024-06-16 04:54 pm W 14.0 18.1----29.87- 64.8 69.6----
2024-06-16 04:48 pm W 12.0 15.9----29.87- 65.3 69.6----
2024-06-16 04:42 pm W 12.0 14.0----29.87- 65.5 69.6----
2024-06-16 04:36 pm W 9.9 13.0----29.87- 65.1 69.4----
2024-06-16 04:30 pm W 11.1 15.0----29.87- 65.1 69.4----
2024-06-16 04:24 pm W 12.0 15.9----29.87- 64.4 69.4----
2024-06-16 04:18 pm W 8.9 15.0----29.87- 65.7 69.4----
2024-06-16 04:12 pm W 9.9 15.0----29.87- 66.0 69.4----
2024-06-16 04:06 pm W 11.1 14.0----29.87- 65.8 69.3----
2024-06-16 04:00 pm W 12.0 15.0----29.88-0.04- 69.1----
2024-06-16 03:54 pm W 11.1 14.0----29.87-- 69.1----
2024-06-16 03:48 pm W 11.1 15.0----29.87- 66.0 68.9----
2024-06-16 03:42 pm W 12.0 15.9----29.88- 66.4 68.9----
2024-06-16 03:36 pm W 13.0 17.1----29.88- 66.4 68.9----
2024-06-16 03:30 pm W 13.0 17.1------ 66.6 68.7----
2024-06-16 03:24 pm W 14.0 19.0------ 66.9 68.7----
2024-06-16 03:18 pm W 13.0 15.9----29.88- 67.6 68.5----
2024-06-16 03:12 pm W 12.0 15.0----29.88- 67.6 68.2----
2024-06-16 03:06 pm W 8.0 11.1----29.88- 67.5 68.0----
2024-06-16 03:00 pm W 8.0 8.9----29.88-0.04 66.9 67.8----
2024-06-16 02:54 pm W 6.0 8.0----29.88- 66.6 67.8----
2024-06-16 02:48 pm W 6.0 9.9----29.88-------
2024-06-16 02:42 pm W 6.0 11.1----29.89-------
2024-06-16 02:36 pm W 8.0 9.9----29.89-------
2024-06-16 02:30 pm W 5.1 7.0----29.89- 67.8 67.8----
2024-06-16 02:24 pm W 6.0 8.0----29.89- 66.7 67.8----
2024-06-16 02:18 pm W 4.1 8.0----29.90-- 67.8----
2024-06-16 02:12 pm W 7.0 11.1----29.90-- 67.8----
2024-06-16 02:06 pm W 8.9 11.1----29.90-- 67.8----
2024-06-16 02:00 pm W 7.0 8.9----29.90-0.02 66.0 67.8----
2024-06-16 01:54 pmWSW 8.0 11.1----29.90- 65.7 67.8----
2024-06-16 01:48 pmWSW 8.0 11.1----29.90-- 67.8----
2024-06-16 01:42 pm W 8.9 12.0----29.90-- 67.8----
2024-06-16 01:36 pm W 8.0 11.1----29.90-- 67.8----
2024-06-16 01:30 pmWSW 8.0 11.1----29.90- 65.5 67.8----
2024-06-16 01:24 pmWSW 8.9 11.1----29.91- 65.1 67.8----
2024-06-16 01:18 pmWSW 8.9 9.9----29.91- 65.1 67.8----
2024-06-16 01:12 pm SW 8.0 9.9----29.91- 65.1 67.8----
2024-06-16 01:06 pmWSW 8.0 9.9----29.91- 65.3 67.8----
2024-06-16 01:00 pmWSW 8.0 9.9----29.91-0.01 64.9 67.8----
2024-06-16 12:54 pm SW 7.0 8.0----29.91- 64.6 67.6----
2024-06-16 12:48 pm SW 6.0 7.0----29.91- 64.4 67.6----
2024-06-16 12:42 pm SW 4.1 7.0----29.91- 64.2 67.5----
2024-06-16 12:36 pm SW 6.0 7.0----29.91- 63.7 67.5----
2024-06-16 12:30 pmWSW 6.0 8.9----29.91-- 67.5----
2024-06-16 12:24 pmWSW 7.0 8.9----29.92-- 67.5----
2024-06-16 12:18 pm SW 8.0 9.9----29.92- 63.1 67.5----
2024-06-16 12:12 pmWSW 8.0 8.9----29.92- 63.0 67.3----
2024-06-16 12:06 pmWSW 8.0 9.9----29.92- 62.6 67.3----
2024-06-16 12:00 pmWSW 8.0 8.9----29.92+0.00- 67.1----
2024-06-16 11:54 amWSW 7.0 9.9----29.92-- 67.1----
2024-06-16 11:48 am SW 8.0 8.9----29.92-- 67.1----
2024-06-16 11:42 am SW 7.0 8.9----29.92-- 67.1----
2024-06-16 11:36 am SW 7.0 9.9----29.92-- 67.1----
2024-06-16 11:30 am SW 8.9 11.1----29.93- 61.3 67.1----
2024-06-16 11:24 amWSW 8.9 11.1----29.93- 61.3 67.1----
2024-06-16 11:18 amWSW 5.1 6.0----29.92- 62.1 67.1----
2024-06-16 11:12 amWSW 4.1 5.1----29.92- 62.1 67.1----
2024-06-16 11:06 am SW 2.9 5.1----29.92- 61.9 67.1----
2024-06-16 11:00 am SW 5.1 7.0----29.92-0.01 61.7 67.1----
2024-06-16 10:54 amWSW 5.1 6.0----29.92- 61.7 67.1----
2024-06-16 10:48 amWSW 5.1 6.0----29.92- 61.5 67.1----
2024-06-16 10:42 am SW 6.0 6.0----29.91- 61.2 67.1----
2024-06-16 10:36 am SW 5.1 6.0----29.91- 61.2 67.1----
2024-06-16 10:30 am SW 4.1 6.0----29.92- 61.0 67.3----
2024-06-16 10:24 amSSW 4.1 5.1----29.92- 61.0 67.3----
2024-06-16 10:18 am SW 4.1 5.1----29.92- 61.0 67.3----
2024-06-16 10:12 amWSW 4.1 5.1----29.93- 60.6 67.3----
2024-06-16 10:06 amWSW 4.1 5.1----29.92- 59.9 67.5----
2024-06-16 10:00 amWSW 4.1 6.0----29.93+0.01 59.7 67.5----
2024-06-16 09:54 amWSW 5.1 6.0----29.93- 59.4 67.5----
2024-06-16 09:48 am SW 4.1 5.1----29.92-- 67.5----
2024-06-16 09:42 am SW 4.1 5.1----29.92-- 67.5----
2024-06-16 09:36 am SW 4.1 5.1----29.92-- 67.5----
2024-06-16 09:30 am SW 4.1 6.0----29.92-- 67.5----
2024-06-16 09:24 am SW 4.1 5.1----29.92-- 67.5----
2024-06-16 09:18 am SW 2.9 4.1----29.93- 58.3-----
2024-06-16 09:12 am SW 2.9 5.1----29.93- 58.1-----
2024-06-16 09:06 amWSW 2.9 4.1----29.93- 58.5-----
2024-06-16 09:00 amWSW 4.1 4.1----29.93+0.01 58.1 67.5----
2024-06-16 08:54 amWSW 2.9 4.1----29.93- 57.7 67.5----
2024-06-16 08:48 am W 2.9 4.1----29.93-- 67.5----
2024-06-16 08:42 am W 2.9 4.1----29.93-- 67.5----
2024-06-16 08:36 amWSW 1.9 4.1----29.93-- 67.5----
2024-06-16 08:30 amWSW 2.9 4.1----29.93- 57.6 67.5----
2024-06-16 08:24 amWSW 1.9 4.1----29.93- 57.2 67.5----
2024-06-16 08:18 am W 1.9 4.1----29.93-- 67.5----
2024-06-16 08:12 amWSW 2.9 5.1----29.93-- 67.5----
2024-06-16 08:06 amWSW 2.9 5.1----29.93-- 67.5----
2024-06-16 08:00 am W 4.1 5.1----29.93+0.02 56.8 67.5----
2024-06-16 07:54 amWSW 2.9 5.1----29.93- 57.0 67.5----
2024-06-16 07:48 am W 2.9 5.1----29.93-- 67.6----
2024-06-16 07:42 am W 1.9 4.1----29.93-- 67.6----
2024-06-16 07:36 am W 1.9 2.9----29.92-- 67.6----
2024-06-16 07:30 am-------29.92-- 67.6----
2024-06-16 07:24 am-------29.92-- 67.6----
2024-06-16 07:18 amWSW 2.9 5.1----29.92- 56.5 67.8----
2024-06-16 07:12 am W 4.1 5.1----29.92- 56.3 67.6----
2024-06-16 07:06 am W 2.9 4.1----29.92- 55.9 67.6----
2024-06-16 07:00 am W 2.9 6.0----29.92+0.01- 67.6----
2024-06-16 06:54 am W 5.1 6.0----29.92-- 67.6----
2024-06-16 06:48 am W 5.1 6.0----29.92- 55.4 67.6----
2024-06-16 06:42 am W 5.1 7.0----29.92- 55.8 67.6----
2024-06-16 06:36 am W 5.1 8.0----29.92- 55.9 67.6----
2024-06-16 06:30 am W 5.1 6.0----29.92- 55.4 67.6----
2024-06-16 06:24 am- 0.0 1.0----29.92- 56.1 67.5----
2024-06-16 06:18 am- 0.0 1.0----29.92-- 67.5----
2024-06-16 06:12 am SE 1.0 2.9----29.92-- 67.5----
2024-06-16 06:06 amESE 1.9 2.9----29.91-- 67.5----
2024-06-16 06:00 am- 0.0 1.9----29.92+0.00 55.4 67.5----
2024-06-16 05:54 am- 0.0 1.9----29.91- 55.6 67.5----
2024-06-16 05:48 am- 0.0 1.9----29.91- 55.6 67.5----
2024-06-16 05:42 am N 1.0 1.9----29.91- 55.6 67.5----
2024-06-16 05:36 am- 0.0 1.9----29.91- 55.4 67.5----
2024-06-16 05:30 am- 0.0 1.0----29.92- 55.0 67.5----
2024-06-16 05:24 am- 0.0 1.9----29.92- 55.6 67.6----
2024-06-16 05:18 am-------29.92- 55.0 67.6----
2024-06-16 05:12 am-------29.91- 55.2 67.6----
2024-06-16 05:06 am-------29.91- 55.4 67.6----
2024-06-16 05:00 am E 4.1 5.1----29.91-0.01 55.2 67.6----
2024-06-16 04:54 am E 2.9 4.1----29.91- 55.4 67.6----
2024-06-16 04:48 am E 1.9 4.1----29.91- 55.4 67.8----
2024-06-16 04:42 am E 2.9 4.1----29.91- 55.6 67.8----
2024-06-16 04:36 am E 2.9 4.1----29.91- 55.6 67.8----
2024-06-16 04:30 am E 2.9 4.1----29.91- 55.6 67.8----
2024-06-16 04:24 am E 2.9 4.1----29.91- 55.8 67.8----
2024-06-16 04:18 am E 2.9 4.1----29.91-- 67.8----
2024-06-16 04:12 am E 2.9 5.1----29.91-- 67.8----
2024-06-16 04:06 am E 2.9 4.1----29.91-- 67.8----
2024-06-16 04:00 am E 2.9 5.1----29.91-- 67.8----
2024-06-16 03:54 am- 0.0 2.9----29.91-- 67.8----
2024-06-16 03:48 am- 0.0 2.9----29.91-- 68.0----
2024-06-16 03:42 amSSW 2.9 5.1----29.91-- 68.0----
2024-06-16 03:36 am SW 2.9 6.0----29.91-- 68.0----
2024-06-16 03:30 am SW 5.1 7.0----29.91-- 68.0----
2024-06-16 03:24 am SW 5.1 7.0----29.91-- 68.0----
2024-06-16 03:18 amSSW 4.1 5.1----29.91- 56.3 68.0----
2024-06-16 03:12 amSSW 2.9 4.1----29.91- 56.1 68.0----
2024-06-16 03:06 amSSW 1.9 5.1----29.91- 55.8 68.0----
2024-06-16 03:00 am SW 5.1 7.0----29.91-0.02- 68.2----
2024-06-16 02:54 amSSW 6.0 8.0----29.91-- 68.2----
2024-06-16 02:48 am SW 6.0 8.9----29.92- 56.3 68.2----
2024-06-16 02:42 am SW 8.0 9.9----29.92- 55.8 68.2----
2024-06-16 02:36 amWSW 8.0 8.9----29.92- 55.8 68.4----
2024-06-16 02:30 amWSW 7.0 9.9----29.92- 56.3 68.4----
2024-06-16 02:24 am SW 8.0 9.9----29.92- 55.8 68.4----
2024-06-16 02:18 am SW 7.0 8.9----29.92-- 68.4----
2024-06-16 02:12 amWSW 6.0 8.0----29.92-- 68.4----
2024-06-16 02:06 amWSW 6.0 8.0----29.92-- 68.4----
2024-06-16 02:00 am SW 5.1 7.0----29.92-0.02- 68.4----
2024-06-16 01:54 amWSW 5.1 7.0----29.92-- 68.4----